Starlink 3218

operational
NORAD ID: 49725 Int'l Des: 2021-115 Owner: SPXS Country: US Constellation: starlink
LEOCIRCULAR

Starlink 3218について

説明を読み込み中...

リアルタイム位置

3D地球を読み込み中...

次回通過

高度履歴

Altitude vs Time

uPlot chart will show altitude changes over time

軌道要素

1 49725U 21115B 25351.73617244 -.00000358 00000-0 -44299-5 0 9998
2 49725 53.2163 157.1296 0001408 92.0772 268.0382 15.08836980223161
Epoch: Dec 17, 2025 • Age: 13 hours

現在のステータス

高度 544.9 km
速度 7.60 km/s
衛星直下点 51.17°N, 77.38°E
打ち上げ日 Dec 2, 2021
運用期間 4 years
タイプ internet

技術仕様

分類 Payload
質量 290.00 kg
乾燥質量 270.00 kg
総質量 290.00 kg
長さ 0.20 m
直径 2.80 m
スパン 9.00 m
形状 Box + pan
製造者 SPXS
バスタイプ Starlink
フェーズステータス In Orbit
所有者/国 SPXS/US

大規模コンステレーション

Loading constellations...